Theta_e
303 302 303 303 303 304 303 302 302 302 303 302 302 301 301 302 302 302 302 303 304 305 306 307 307 307 308 307 306 305 304 303 302 302 301 301 300 299 298 298 296 295
301 301 301 302 302 301 302 302 302 302 302 301 301 300 300 300 299 301 301 302 302 304 305 306 306 307 307 306 305 304 303 302 301 302 301 300 300 299 298 298 296 295
300 300 301 301 302 301 300 300 300 301 301 300 300 300 299 300 300 300 301 301 301 302 303 304 305 305 306 305 304 303 302 301 301 300 300 300 300 299 298 298 296 294
300 301 301 301 300 300 298 298 298 299 299 299 299 299 299 299 300 300 300 298 300 300 300 301 302 303 304 304 303 301 301 301 301 299 298 297 296 296 296 294 294 293
300 300 300 299 298 298 297 299 298 298 298 299 298 297 297 298 298 297 297 296 297 296 296 298 298 299 300 301 301 298 297 298 296 295 296 296 295 295 296 294 294 294
297 298 298 298 298 298 298 299 299 297 297 295 298 297 297 297 296 296 296 295 294 294 294 294 295 295 295 296 296 296 296 296 295 295 295 295 295 293 294 293 294 293
296 296 296 297 296 297 297 298 297 296 296 296 293 295 294 294 295 295 295 295 295 294 294 294 294 294 293 294 294 294 294 295 294 294 295 295 294 292 292 292 293 293
295 293 296 295 296 295 294 295 294 293 293 291 293 293 293 294 294 294 294 294 294 294 293 293 293 294 293 293 293 294 294 294 294 293 294 294 292 292 290 291 292 291
293 293 293 293 293 294 293 293 292 291 290 292 292 291 291 293 294 294 294 293 293 293 293 293 293 293 292 292 293 294 294 293 293 293 293 293 291 292 291 290 289 289
293 292 291 292 292 293 293 292 291 291 290 291 291 291 291 291 292 293 293 293 293 292 292 292 292 292 292 292 293 293 294 293 292 292 293 293 292 292 290 289 289 288
292 291 291 291 292 292 292 291 290 290 290 291 290 291 291 292 292 292 292 292 292 292 291 291 291 292 292 292 292 293 293 293 292 292 292 292 292 291 288 288 288 288
292 291 292 292 292 291 291 291 290 290 290 289 290 292 291 291 292 292 292 291 291 292 291 291 291 291 291 292 292 292 292 291 291 291 291 291 290 289 288 288 288 287
293 293 293 292 291 291 290 290 290 290 290 290 289 291 291 291 291 291 290 291 291 291 291 291 291 290 291 291 291 291 291 290 290 289 289 289 288 288 287 287 287 286
294 293 292 292 292 290 290 290 290 290 290 290 289 289 290 290 290 291 290 290 290 290 290 290 290 290 290 290 290 290 290 289 289 288 288 288 287 287 286 286 286 286
295 292 291 291 290 290 290 290 290 290 289 289 289 289 289 289 289 290 290 289 289 289 289 289 289 289 289 289 289 289 289 289 288 288 288 287 286 285 285 285 285 285
293 291 290 289 289 290 290 290 289 289 288 288 288 288 288 288 287 287 288 289 289 288 288 288 288 289 288 289 290 289 289 289 288 287 287 287 285 284 284 284 284 284
292 291 290 289 290 289 289 289 288 288 287 287 287 287 287 287 287 287 287 288 288 288 287 287 287 288 288 290 291 291 289 288 287 287 286 286 285 284 283 282 282 282
292 291 289 290 289 289 289 288 287 287 287 287 286 286 286 285 286 286 286 286 287 287 287 286 286 287 289 290 291 291 289 287 287 286 286 285 285 284 283 281 281 280
290 290 290 289 289 288 288 287 287 287 287 286 286 286 284 285 286 285 285 285 286 286 286 286 286 287 289 290 291 291 290 288 286 286 285 285 284 283 282 280 280 279
289 289 289 289 288 287 287 287 286 287 287 286 285 284 284 285 284 284 285 284 285 286 286 286 286 287 289 289 290 290 290 289 286 285 285 284 283 282 281 280 280 279
289 289 289 288 287 287 286 287 287 287 286 285 285 284 284 284 284 283 284 284 284 285 286 286 285 287 289 289 289 290 290 289 285 284 283 283 283 282 281 280 280 280
288 288 288 288 287 286 286 286 286 286 285 283 283 282 283 282 282 283 283 283 284 285 285 285 285 287 288 289 290 290 291 286 284 283 283 283 282 281 280 280 280 280
287 288 288 287 286 286 286 286 285 284 283 282 282 282 282 282 282 282 283 283 283 284 284 284 284 285 287 288 289 290 290 285 283 283 282 281 281 280 279 279 280 280
287 287 287 287 286 286 286 285 284 283 283 282 283 281 281 281 281 281 282 282 283 284 284 284 283 284 287 288 289 290 288 284 283 282 281 280 280 280 279 279 280 281
286 286 287 287 286 286 285 285 283 283 282 281 282 281 282 281 281 281 281 283 284 284 284 283 283 283 287 288 289 289 287 283 282 281 280 279 279 278 279 279 279 281
286 286 286 286 286 285 284 284 282 280 280 280 280 281 280 280 281 281 281 282 283 283 283 283 282 283 285 288 288 289 286 283 282 281 279 279 279 278 278 278 279 280
Wind_Speed
8 7 9 9 10 9 9 9 8 8 8 7 8 7 8 8 7 7 8 8 8 8 8 8 8 8 8 9 9 9 10 11 10 10 12 11 12 12 12 13 11 11
9 9 8 8 8 7 7 7 7 8 8 8 7 7 7 6 7 8 9 9 9 9 8 8 8 9 9 9 9 10 9 9 11 10 11 13 13 12 13 13 12 9
8 9 9 10 10 7 7 5 6 7 8 8 7 7 7 6 7 8 8 9 9 9 9 8 9 9 9 9 9 10 10 11 12 10 11 13 12 12 12 11 9 10
9 10 9 8 6 6 5 6 7 7 7 7 8 7 7 7 8 8 8 8 8 8 7 7 9 8 9 9 9 9 10 11 11 9 10 8 8 9 8 7 8 8
9 8 6 5 5 6 6 8 9 8 8 9 7 7 7 7 8 8 8 7 7 7 7 8 7 8 7 8 8 8 8 9 7 7 9 9 9 10 10 9 10 12
5 5 5 6 7 7 8 9 8 8 8 6 8 7 8 8 8 8 8 9 8 8 8 8 8 8 7 7 6 8 8 8 7 8 9 10 9 8 8 9 11 11
6 6 8 7 7 8 9 9 7 7 7 7 5 8 8 8 8 8 8 8 9 9 9 9 9 8 7 6 7 7 7 8 7 8 10 9 8 8 7 9 11 12
8 6 7 7 8 8 9 9 7 7 7 6 7 7 8 9 9 8 7 8 8 9 9 9 9 9 8 7 8 8 8 7 8 9 10 9 8 9 8 8 10 11
7 8 7 8 9 9 9 9 8 7 6 8 8 7 7 8 8 9 9 9 8 9 9 9 9 9 8 8 9 10 10 9 9 10 11 10 10 11 11 9 9 10
9 8 8 9 10 10 10 9 8 8 7 8 8 7 9 7 7 8 8 9 9 9 9 8 8 8 8 9 10 10 10 10 9 10 10 11 12 11 10 10 12 10
9 8 10 11 12 9 11 9 9 8 8 9 8 8 8 7 7 7 8 8 9 9 9 9 9 9 9 10 9 9 10 10 9 10 10 10 10 10 10 11 11 12
12 10 12 13 11 10 11 9 9 9 9 8 8 9 8 8 9 8 8 9 9 9 9 9 9 9 10 11 10 9 9 8 8 9 9 8 8 7 9 9 11 11
12 13 13 12 11 11 8 8 10 9 9 10 9 9 9 9 8 9 8 8 9 9 10 9 9 9 10 9 9 8 9 9 9 8 8 7 7 8 8 9 9 9
13 11 11 12 11 9 9 9 9 10 10 9 8 10 10 10 10 10 9 8 8 9 9 9 9 9 9 8 8 8 9 9 9 9 8 7 7 7 8 9 9 9
11 8 7 8 8 9 10 10 10 9 8 9 9 10 9 9 8 9 9 9 8 9 8 8 9 9 8 9 9 9 9 9 9 9 9 9 8 7 8 9 9 9
9 7 8 7 7 10 10 9 9 9 9 9 10 10 9 8 8 8 9 10 10 9 9 8 9 8 10 14 12 10 10 9 8 9 9 9 10 9 8 8 9 9
8 9 7 8 10 8 7 8 9 8 8 9 9 9 10 9 9 10 10 9 10 10 10 9 9 9 14 14 15 14 11 9 9 9 9 9 9 10 10 10 8 8
9 7 7 9 7 9 8 7 6 7 9 9 9 9 9 7 9 10 10 9 9 10 10 10 9 10 13 15 16 15 12 10 9 9 9 9 9 10 8 8 9 8
7 8 9 8 9 8 7 6 8 8 9 9 11 8 6 10 11 9 10 9 9 10 10 9 9 11 11 16 18 15 15 13 8 8 9 9 9 10 9 8 8 8
7 8 9 9 7 7 7 8 9 11 10 9 7 7 9 9 8 10 8 9 9 9 9 8 8 11 13 16 17 17 15 13 8 9 8 7 9 9 9 10 10 10
8 8 9 8 6 7 7 9 10 9 9 9 8 9 9 10 10 9 9 8 8 8 7 7 8 9 13 16 16 16 16 14 7 5 6 7 9 9 9 10 9 9
7 8 8 7 6 6 7 9 9 8 8 6 6 6 6 5 6 6 8 8 7 7 7 8 6 9 12 15 16 16 15 10 6 7 8 7 5 6 7 7 8 10
6 7 8 7 6 7 9 9 8 8 7 6 7 7 8 8 8 8 7 8 9 9 9 8 7 9 13 15 15 17 12 8 7 6 6 6 6 6 6 7 8 9
7 7 8 7 7 10 10 8 7 5 7 7 9 9 9 8 7 7 7 7 9 9 9 9 8 9 15 16 17 18 14 9 7 7 6 5 5 4 4 5 8 13
7 7 8 8 9 10 9 9 9 9 7 7 7 7 8 6 6 7 6 6 6 7 8 9 7 7 12 15 17 18 14 8 8 7 7 6 6 6 5 5 6 9
7 8 9 9 10 8 8 8 6 5 7 7 7 7 6 6 6 6 7 6 5 6 7 7 7 6 9 15 14 15 14 10 8 8 9 9 8 8 7 5 6 7
Wind_Direction
206 204 211 212 218 215 210 210 211 215 218 212 214 210 209 209 201 210 221 220 221 215 210 208 201 200 198 196 194 194 197 205 206 201 203 202 208 209 208 206 199 197
213 212 216 218 225 220 223 211 212 212 218 214 213 205 209 197 203 201 214 219 218 220 215 211 206 204 200 195 192 192 196 198 205 201 206 206 211 208 211 207 203 190
216 217 217 218 220 221 220 218 215 217 217 216 210 204 202 199 203 205 212 220 220 220 217 214 211 208 203 201 195 195 197 199 206 203 203 207 205 204 209 201 199 193
222 220 220 225 224 224 216 215 221 219 218 214 211 204 196 197 199 201 207 215 222 223 222 219 218 212 209 204 197 201 203 205 207 198 203 205 205 205 205 197 201 199
222 225 227 228 224 222 214 217 218 216 213 214 206 201 200 196 200 198 198 209 219 224 220 222 222 223 215 206 199 200 203 208 201 190 198 204 205 196 202 193 199 204
233 229 226 222 218 214 220 221 220 212 214 211 207 196 203 199 198 198 194 200 210 216 220 220 219 222 216 213 202 205 200 203 200 190 199 206 206 202 197 195 199 204
225 217 224 219 224 219 224 227 223 215 214 210 195 207 195 198 200 199 199 203 206 211 214 214 215 217 214 208 207 209 206 203 195 195 203 210 201 202 199 193 198 203
224 219 217 218 222 222 226 226 221 217 213 207 211 210 195 202 200 196 200 204 208 213 216 216 215 215 207 201 205 209 210 202 198 195 203 204 192 200 200 201 199 202
222 221 212 219 221 224 225 222 219 218 205 210 213 211 207 208 203 196 195 200 206 211 213 215 213 213 206 201 209 208 207 206 201 198 200 197 196 202 197 194 194 198
223 220 214 219 221 221 223 218 213 215 204 212 212 204 206 209 204 199 195 197 204 208 210 211 212 211 206 207 209 208 209 207 203 203 204 202 201 200 192 186 195 190
225 216 219 222 223 218 221 212 210 210 206 209 202 207 206 200 207 198 198 198 204 205 205 208 210 207 207 211 213 211 209 206 204 205 206 205 203 197 188 187 189 193
217 211 222 223 222 220 218 209 208 208 207 208 199 203 201 202 199 198 200 201 203 205 205 209 208 209 211 212 210 208 207 205 201 202 206 204 199 190 186 188 190 188
229 220 213 217 218 218 210 209 211 209 204 207 197 201 200 201 201 199 206 205 205 199 204 206 208 209 213 213 210 205 204 201 198 198 197 194 191 187 185 190 191 180
232 229 225 218 209 205 207 211 211 209 209 203 194 203 204 201 200 200 201 203 209 206 206 204 208 211 211 209 204 202 201 204 198 194 191 189 188 186 183 186 186 183
239 233 231 231 221 209 205 209 209 208 204 200 201 206 203 204 200 196 197 204 209 209 208 203 208 211 206 200 197 200 202 202 197 193 189 187 186 186 186 186 187 186
239 235 227 221 219 220 219 208 202 204 201 203 206 204 201 198 196 198 201 203 203 209 208 205 211 211 205 202 199 197 198 200 195 195 191 189 185 185 188 192 191 188
240 236 223 222 223 223 218 210 207 201 204 208 207 201 200 195 190 199 204 201 203 204 209 212 212 208 203 202 201 196 194 194 193 196 194 191 190 186 188 189 188 182
239 238 227 232 222 225 217 211 200 200 209 211 207 204 202 185 197 204 202 201 202 204 209 212 215 213 203 199 199 192 189 193 194 193 192 194 191 189 187 183 180 174
241 231 232 230 224 220 208 197 201 206 211 210 212 205 182 194 205 199 205 202 200 204 211 211 217 209 201 204 204 192 188 189 196 194 191 196 189 187 181 178 174 169
243 236 237 234 224 213 202 204 202 212 210 207 202 193 199 203 201 204 202 202 204 206 210 211 215 214 205 203 205 201 191 187 199 195 195 190 189 184 181 178 176 171
240 236 239 236 221 213 209 213 212 215 208 204 197 198 196 200 198 201 204 202 204 204 207 215 220 214 212 209 209 205 198 188 194 183 186 193 193 189 180 175 170 166
244 247 244 237 223 216 217 221 218 215 211 198 199 207 209 200 208 198 199 198 197 196 201 215 217 213 214 213 210 209 191 190 178 185 191 191 185 172 174 171 166 160
247 245 246 235 222 219 223 222 215 215 211 187 198 201 197 200 201 199 196 192 193 196 198 207 207 207 211 210 208 204 185 189 182 187 185 178 176 172 168 160 166 163
241 234 239 232 218 222 222 220 214 210 203 185 195 193 201 203 196 196 196 194 193 197 197 199 204 201 204 206 203 202 190 183 181 177 175 168 157 150 152 158 166 167
240 231 230 227 224 224 215 213 205 201 192 185 199 193 202 187 188 189 195 198 199 196 191 193 194 201 204 200 198 196 180 173 171 172 166 165 153 147 146 155 163 171
238 232 229 223 226 222 210 210 191 179 180 185 194 187 185 180 184 187 189 198 187 188 193 190 189 201 202 200 197 188 169 170 173 168 172 166 166 158 151 157 159 164